Regional Weather Roundup
Issued by NWS Jackson, KY

Home | Current Version | Previous Version | Text Only | Print | Product List | Glossary Off
Versions: 1 2 3 4 5 6 7 8 9 10 11 12 13 14 15 16 17 18 19 20 21 22 23 24 25 26 27 28 29 30 31 32 33 34 35 36 37 38 39 40 41 42 43 44 45 46 47 48 49 50

000
ASUS43 KJKL 190710
RWRJKL

EAST KENTUCKY HOURLY WEATHER ROUNDUP
NATIONAL WEATHER SERVICE JACKSON KY
300 AM EDT FRI SEP 19 2014

NOTE: "FAIR" INDICATES FEW OR NO CLOUDS BELOW 12,000 FEET WITH
NO SIGNIFICANT WEATHER AND/OR OBSTRUCTIONS TO VISIBILITY.

* THESE REPORTS ARE NOT UNDER NWS QUALITY CONTROL AND MAY NOT
  REPORT WEATHER SUCH AS PRECIPITATION AND FOG.

KYZ079-080-083-085-087-088-110-112-115-119-120-190800
...EASTERN KENTUCKY...

CITY           SKY/WX    TMP DP  RH WIND       PRES   REMARKS
JACKSON        CLEAR     57  50  77 CALM      30.11S
LONDON         CLEAR     58  53  84 N5        30.10S
MONTICELLO*    CLEAR     56  54  93 N6        30.10S
WILLIAMSBURG*  CLEAR     57  55  94 CALM      30.09S
MIDDLESBORO*   MOCLDY    54  54  99 CALM      30.11S
HARLAN APT*    CLOUDY    54  54 100 MISG      30.11S VSB 1/2
HAZARD APT*    SUNNY     54  54 100 CALM      30.11S FOG
BLACK MTN*       N/A     54  52  94 VRB1        N/A
PIKEVILLE APT* CLEAR     55  54  94 CALM      30.11F
BIG SANDY*     SUNNY     53  52  99 CALM      30.12S FOG
MOREHEAD APT*  MOSUNNY   57  46  67 E6        30.15S
$$

KYZ035-036-041-042-044-050-067-078-099-190800
...CENTRAL KENTUCKY...

CITY           SKY/WX    TMP DP  RH WIND       PRES   REMARKS
MT STERLING*   CLEAR     54  50  87 E6        30.14S
FLEMING/MASON* CLEAR     54  48  82 NE6       30.15S
DANVILLE*      CLEAR     52  52 100 NE5       30.12S
RICHMOND*      CLEAR     54  50  87 CALM      30.11R
LEXINGTON      CLEAR     58  48  69 E9        30.12S
FRANKFORT      CLEAR     57  50  77 NE6       30.11F
$$

KYZ091>093-OHZ055-061-077-WVZ005-015-034-035-042-190800
...SOUTHERN OHIO/WEST VIRGINIA...

CITY           SKY/WX    TMP DP  RH WIND       PRES   REMARKS
COVINGTON      CLEAR     57  46  66 E9        30.15S
COLUMBUS       CLEAR     56  48  74 E8        30.18R
DAYTON         CLEAR     53  49  86 E7        30.19S
WILMINGTON     CLEAR     51  47  86 NE6       30.17R
HUNTINGTON     CLEAR     54  49  83 NE3       30.13S
CHARLESTON     PTCLDY    52  52 100 CALM      30.13R
PINEVILLE*     CLEAR     54  54 100 MISG      30.17F FOG
BECKLEY        PTCLDY    52  49  89 CALM      30.15S
BLUEFIELD      CLOUDY    58  53  84 E3        30.16S
$$

VAZ002-007-008-TNZ017-027-036-066-071-190800
...SOUTHWEST VIRGINIA/EAST TENNESSEE...

CITY           SKY/WX    TMP DP  RH WIND       PRES   REMARKS
WISE*          CLEAR     55  54  94 CALM      30.15S
JONESVILLE*    SUNNY     52  52 100 CALM      30.11S
ABINGDON*      CLEAR     59  56  89 CALM      30.11S
BRISTOL        CLEAR     55  51  86 N3        30.09S
KNOXVILLE      MOCLDY    61  57  87 NE5       30.05R
OAK RIDGE      CLEAR     60  57  89 CALM      30.08R
CROSSVILLE     CLEAR     58  54  86 CALM      30.10R FOG
NASHVILLE      PTCLDY    62  59  90 NE6       30.04F
$$

...KEY TO REMARKS...
VSB - VISIBILITY IN MILES
WCI - WIND CHILL INDEX
HX  - HEAT INDEX

$$


USA.gov is the U.S. government's official web portal to all federal, state and local government web resources and services.